Station WASD2 - 8594900 - Washington, DC Image indicating link to RSS feed of recent meteorological observations for station WASD2


Conditions at WASD2 as of
(1:48 am EDT)
0548 GMT on 07/19/2024:
     

Click on the graph icon in the table below to see a time series plot of the last five days of that observation.

5-day plot - Wind Direction Wind Direction (WDIR): SE ( 140 deg true )
5-day plot - Wind Speed Wind Speed (WSPD): 1.0 kts
5-day plot - Wind Gust Wind Gust (GST): 1.9 kts
5-day plot - Atmospheric Pressure Atmospheric Pressure (PRES):30.01 in
5-day plot - Air Temperature Air Temperature (ATMP): 78.8 °F
5-day plot - Wind Speed at 10 Meters Wind Speed at 10 meters (WSPD10M): 1.9 kts
5-day plot - Wind Speed at 20 Meters Wind Speed at 20 meters (WSPD20M): 1.9 kts
5-day plot -  Wind Speed, Wind Gust and Atmospheric Pressure Combined plot of Wind Speed, Gust, and Air Pressure
NOS Water Level Observation Network Water Level
Previous observations
TIME
(EDT)
5-day plot - Wind Direction
WDIR
 
5-day plot - Wind Speed
WSPD
kts
5-day plot - Wind Gust
GST
kts
5-day plot - Wave Height
WVHT
ft
5-day plot - Dominant Wave Period
DPD
sec
5-day plot - Average Wave Period
APD
sec
5-day plot - Mean Wave Direction
MWD
 
5-day plot - Atmospheric Pressure
PRES
in
5-day plot - Pressure Tendency
PTDY
in
5-day plot - Air Temperature
ATMP
°F
5-day plot - Water Temperature
WTMP
°F
5-day plot - Dew Point
DEWP
°F
5-day plot - Salinity
SAL
psu
5-day plot - Visibility
VIS
nmi
5-day plot - Tide (above MLLW)
TIDE
ft
2024-07-19 01:42 am- 0.0 1.9----30.01- 78.8-----
2024-07-19 01:36 am- 0.0 1.9----30.01- 79.0-----
2024-07-19 01:30 amNNW 1.9 4.1----30.02- 79.0 87.1----
2024-07-19 01:24 amNNW 2.9 2.9----30.02- 79.0 87.1----
2024-07-19 01:18 am NW 1.0 1.9----30.02- 79.3 87.1----
2024-07-19 01:12 amWNW 1.9 1.9----30.02- 79.5 87.1----
2024-07-19 01:06 am NW 1.0 1.9----30.02- 79.5 87.3----
2024-07-19 01:00 amNNW 1.0 1.9----30.02+0.02 79.9 87.3----
2024-07-19 12:54 am N 1.0 2.9----30.02- 79.9 87.3----
2024-07-19 12:48 am- 0.0 1.9----30.02- 79.7 87.3----
2024-07-19 12:42 am- 0.0 1.0----30.02- 79.9 87.3----
2024-07-19 12:36 amENE 1.0 1.9----30.02- 80.1 87.3----
2024-07-19 12:30 amNNE 1.9 1.9----30.01- 80.2 87.3----
2024-07-19 12:24 am- 0.0 1.0----30.01- 80.4 87.3----
2024-07-19 12:18 am- 0.0 1.9----30.01- 80.4 87.3----
2024-07-19 12:12 am- 0.0 1.0----30.01- 80.6 87.3----
2024-07-19 12:06 am- 0.0 1.0----30.01- 80.8 87.3----
2024-07-19 12:00 am- 0.0 1.0----30.00+0.02 80.8 87.3----
2024-07-18 11:54 pm- 0.0 1.9----30.00- 81.0 87.3----
2024-07-18 11:48 pm- 0.0 1.0----30.00- 81.1 87.3----
2024-07-18 11:42 pm- 0.0 1.9----30.00- 81.1 87.3----
2024-07-18 11:36 pm- 0.0 1.0----30.00- 81.1 87.3----
2024-07-18 11:30 pm NE 1.0 2.9----30.00- 81.1 87.3----
2024-07-18 11:24 pm- 0.0 1.9----30.00- 81.3 87.3----
2024-07-18 11:18 pmNNE 1.0 2.9----30.00- 81.3 87.3----
2024-07-18 11:12 pm- 0.0 4.1----30.00- 81.3 87.3----
2024-07-18 11:06 pm- 0.0 2.9----30.00- 81.3 87.3----
2024-07-18 11:00 pm- 0.0 1.9----30.00+0.05 81.3 87.3----
2024-07-18 10:54 pm- 0.0 1.9----30.00- 81.1 87.3----
2024-07-18 10:48 pm E 1.0 1.9----30.00- 81.1 87.3----
2024-07-18 10:42 pmESE 1.9 2.9----30.00- 81.3 87.3----
2024-07-18 10:36 pm E 1.9 2.9----30.00- 81.5 87.3----
2024-07-18 10:30 pmESE 1.0 2.9----30.00- 81.5 87.3----
2024-07-18 10:24 pmESE 1.9 2.9----30.00- 81.7 87.3----
2024-07-18 10:18 pm- 0.0 1.9----30.00- 81.7 87.3----
2024-07-18 10:12 pm- 0.0 1.9----29.99- 81.9 87.3----
2024-07-18 10:06 pm E 1.0 2.9----29.99- 81.9 87.3----
2024-07-18 10:00 pm- 0.0 1.9----30.00+0.07 82.0 87.3----
2024-07-18 09:54 pm- 0.0 1.9----29.99- 82.2 87.3----
2024-07-18 09:48 pm- 0.0 2.9----29.99- 82.4 87.3----
2024-07-18 09:42 pmESE 1.0 4.1----29.99- 82.6 87.3----
2024-07-18 09:36 pm- 0.0 2.9----29.99- 82.6 87.3----
2024-07-18 09:30 pm NE 1.0 2.9----29.99- 82.9 87.3----
2024-07-18 09:24 pmNNE 1.0 2.9----29.98- 82.9 87.3----
2024-07-18 09:18 pm E 1.9 4.1----29.98- 83.1 87.3----
2024-07-18 09:12 pm NE 1.0 2.9----29.98- 83.1 87.3----
2024-07-18 09:06 pm- 0.0 1.9----29.98- 83.1 87.3----
2024-07-18 09:00 pm- 0.0 1.9----29.98+0.06 83.3 87.3----
2024-07-18 08:54 pm- 0.0 1.9----29.98- 83.3 87.3----
2024-07-18 08:48 pm NE 1.0 5.1----29.98- 83.5 87.3----
2024-07-18 08:42 pm- 0.0 4.1----29.97- 83.5 87.3----
2024-07-18 08:36 pm NE 1.9 5.1----29.97- 83.5 87.3----
2024-07-18 08:30 pm N 1.0 4.1----29.96- 83.7 87.3----
2024-07-18 08:24 pmNNE 2.9 4.1----29.96- 84.0 87.3----
2024-07-18 08:18 pm N 2.9 6.0----29.96- 84.2 87.3----
2024-07-18 08:12 pm N 1.9 5.1----29.96- 84.6 87.4----
2024-07-18 08:06 pmNNE 1.9 5.1----29.96- 84.6 87.4----
2024-07-18 08:00 pmNNE 1.9 5.1----29.96+0.03 84.7 87.3----
2024-07-18 07:54 pmNNE 2.9 5.1----29.95- 84.6 87.3----
2024-07-18 07:48 pm N 2.9 5.1----29.95- 85.1 87.3----
2024-07-18 07:42 pm E 1.9 2.9----29.94- 85.1 87.3----
2024-07-18 07:36 pmNNE 1.9 5.1----29.94- 85.5 87.3----
2024-07-18 07:30 pm N 5.1 6.0----29.93- 85.8 87.3----
2024-07-18 07:24 pmNNE 2.9 8.0----29.93- 84.7 87.3----
2024-07-18 07:00 pm N 5.1 8.9----29.93+0.00 85.1 87.3----
2024-07-18 06:54 pm N 4.1 8.9----29.93- 85.3 87.3----
2024-07-18 06:48 pm N 4.1 8.0----29.93- 86.0 87.3----
2024-07-18 06:42 pmNNW 4.1 7.0----29.93- 86.0 87.3----
2024-07-18 06:36 pmNNE 2.9 8.9----29.92- 86.2 87.3----
2024-07-18 06:30 pm N 4.1 8.0----29.93- 86.7 87.3----
2024-07-18 06:24 pm N 1.9 6.0----29.93- 86.0 87.3----
2024-07-18 06:18 pm N 4.1 9.9----29.93- 86.0 87.3----
2024-07-18 06:12 pm N 4.1 7.0----29.93- 85.8 87.3----
2024-07-18 06:06 pm N 5.1 8.0----29.93- 85.6 87.3----
2024-07-18 06:00 pm N 4.1 8.9----29.93-0.03 85.8 87.3----
2024-07-18 05:54 pm N 5.1 8.9----29.93- 85.8 87.3----
2024-07-18 05:48 pm N 7.0 12.0----29.93- 85.8 87.3----
2024-07-18 05:42 pm N 5.1 8.0----29.92- 86.7 87.3----
2024-07-18 05:36 pmNNE 4.1 9.9----29.92- 86.4 87.3----
2024-07-18 05:30 pmNNW 6.0 9.9----29.92- 86.2 87.3----
2024-07-18 05:24 pm N 4.1 8.9----29.92- 86.5 87.3----
2024-07-18 05:18 pmNNW 5.1 8.9----29.93- 86.5 87.3----
2024-07-18 05:12 pmNNW 5.1 8.0----29.93- 86.7 87.3----
2024-07-18 05:06 pmNNW 4.1 9.9----29.93- 86.9 87.3----
2024-07-18 05:00 pm N 5.1 11.1----29.93-0.02 87.3 87.1----
2024-07-18 04:54 pm N 4.1 8.0----29.93- 87.6 87.1----
2024-07-18 04:48 pmNNW 4.1 8.0----29.93- 88.2 87.1----
2024-07-18 04:42 pmNNW 5.1 7.0----29.92- 88.2 87.1----
2024-07-18 04:36 pm N 2.9 5.1----29.92- 87.8 87.1----
2024-07-18 04:30 pmNNW 4.1 6.0----29.92- 87.1 87.1----
2024-07-18 04:24 pm N 5.1 8.0----29.93- 86.4 87.1----
2024-07-18 04:18 pm N 5.1 8.0----29.93- 86.2 86.9----
2024-07-18 04:12 pm NE 5.1 11.1----29.93- 85.5 87.1----
2024-07-18 04:06 pm NE 5.1 8.0----29.93- 85.3 87.1----
2024-07-18 04:00 pmNNE 2.9 8.9----29.93+0.00 85.3 87.1----
2024-07-18 03:54 pm N 4.1 8.0----29.93- 84.9 87.1----
2024-07-18 03:48 pmNNW 6.0 8.0----29.94- 84.4 87.1----
2024-07-18 03:42 pm N 4.1 8.0----29.94- 84.4 87.1----
2024-07-18 03:36 pm N 2.9 9.9----29.95- 84.6 87.1----
2024-07-18 03:30 pm N 2.9 7.0----29.95- 84.6 87.1----
2024-07-18 03:24 pmNNW 7.0 9.9----29.95- 84.6 87.1----
2024-07-18 03:18 pm N 5.1 8.9----29.95- 84.6 87.1----
2024-07-18 03:12 pm NW 6.0 9.9----29.95- 84.0 87.1----
2024-07-18 03:06 pmNNW 7.0 8.9----29.95- 84.4 87.1----
2024-07-18 03:00 pmNNW 6.0 11.1----29.95+0.00 84.7 87.1----
2024-07-18 02:54 pm N 4.1 9.9----29.95- 85.1 87.1----
2024-07-18 02:48 pmNNW 7.0 9.9----29.95- 84.4 87.3----
2024-07-18 02:42 pm N 5.1 12.0----29.95- 84.6 87.3----
2024-07-18 02:36 pmNNW 7.0 12.0----29.95- 84.6 87.3----
2024-07-18 02:30 pmNNW 5.1 11.1----29.95- 84.6 87.3----
2024-07-18 02:24 pmNNW 6.0 11.1----29.95- 84.6 87.3----
2024-07-18 02:18 pmNNW 6.0 8.9----29.95- 84.4 87.3----
2024-07-18 02:12 pmNNW 6.0 11.1----29.95- 85.1 87.3----
2024-07-18 02:06 pm N 7.0 12.0----29.95- 84.9 87.3----
2024-07-18 02:00 pmNNW 7.0 11.1----29.95+0.00 84.9 87.3----
2024-07-18 01:54 pmNNW 8.0 12.0----29.95- 85.5 87.3----
2024-07-18 01:48 pm NW 8.9 12.0----29.95-- 87.3----
2024-07-18 01:42 pm NW 7.0 8.9----29.95-- 87.3----
2024-07-18 01:36 pm N 5.1 12.0----29.95-- 87.3----
2024-07-18 01:30 pmNNE 5.1 8.9----29.95- 86.7 87.3----
2024-07-18 01:24 pmNNW 1.9 6.0----29.95- 87.1 87.3----
2024-07-18 01:18 pmNNW 4.1 6.0----29.95- 87.3 87.3----
2024-07-18 01:12 pmESE 1.9 5.1----29.94- 86.2 87.3----
2024-07-18 01:06 pmNNE 4.1 6.0----29.94- 86.4 87.3----
2024-07-18 01:00 pmNNW 2.9 5.1----29.94-0.02 86.9 87.3----
2024-07-18 12:54 pmNNE 1.9 8.0----29.94- 86.5 87.3----
2024-07-18 12:48 pm NW 7.0 11.1----29.94- 85.1 87.3----
2024-07-18 12:42 pmNNW 6.0 8.9----29.94- 85.3 87.3----
2024-07-18 12:36 pmNNW 5.1 11.1----29.94- 85.3 87.3----
2024-07-18 12:30 pm N 6.0 9.9----29.94- 85.1 87.3----
2024-07-18 12:24 pmNNE 6.0 9.9----29.94- 84.2 87.3----
2024-07-18 12:18 pm N 8.0 12.0----29.95- 84.0 87.3----
2024-07-18 12:12 pm E 1.9 6.0----29.95- 83.7 87.3----
2024-07-18 12:06 pm N 5.1 8.9----29.95- 83.3 87.3----
2024-07-18 12:00 pmNNW 2.9 8.9----29.95+0.01 83.7 87.4----
2024-07-18 11:54 amNNW 7.0 11.1----29.95- 82.9 87.4----
2024-07-18 11:48 am NW 7.0 13.0----29.95- 82.4 87.4----
2024-07-18 11:42 am N 5.1 11.1----29.95- 83.3 87.4----
2024-07-18 11:36 am N 6.0 9.9----29.95- 82.8 87.4----
2024-07-18 11:30 amNNE 2.9 7.0----29.95- 82.6 87.4----
2024-07-18 11:24 am N 6.0 9.9----29.95- 81.9 87.4----
2024-07-18 11:18 amNNE 4.1 9.9----29.95- 81.7 87.4----
2024-07-18 11:12 amNNW 4.1 7.0----29.95- 81.1 87.4----
2024-07-18 11:06 am N 4.1 11.1----29.96- 80.8 87.4----
2024-07-18 11:00 amNNW 5.1 8.9----29.96+0.03 80.6 87.4----
2024-07-18 10:54 amNNW 6.0 12.0----29.96- 79.9 87.4----
2024-07-18 10:48 amNNW 8.0 11.1----29.96- 79.9 87.4----
2024-07-18 10:42 am N 5.1 9.9----29.96- 80.1 87.4----
2024-07-18 10:36 amNNW 5.1 7.0----29.96- 80.1 87.4----
2024-07-18 10:30 am N 2.9 6.0----29.96- 79.2 87.4----
2024-07-18 10:24 amNNW 4.1 7.0----29.95- 78.4 87.4----
2024-07-18 10:18 am NW 5.1 8.0----29.95- 77.7 87.4----
2024-07-18 10:12 am NW 5.1 7.0----29.96- 77.7 87.4----
2024-07-18 10:06 amWNW 5.1 8.0----29.96- 77.4 87.4----
2024-07-18 10:00 am NW 5.1 8.0----29.96+0.05 77.2 87.4----
2024-07-18 09:54 amWNW 6.0 8.9----29.96- 77.2 87.4----
2024-07-18 09:48 amWNW 5.1 8.0----29.95- 77.4 87.4----
2024-07-18 09:42 amWNW 6.0 8.9----29.95- 77.5 87.4----
2024-07-18 09:36 amWNW 6.0 9.9----29.95- 77.4 87.4----
2024-07-18 09:30 amWNW 6.0 8.9----29.95- 77.4 87.4----
2024-07-18 09:24 amWNW 5.1 8.0----29.95- 77.5 87.4----
2024-07-18 09:18 am W 4.1 5.1----29.94- 77.0 87.4----
2024-07-18 09:12 am W 2.9 4.1----29.94- 76.8 87.4----
2024-07-18 09:06 am W 4.1 5.1----29.94- 76.6 87.4----
2024-07-18 09:00 amWNW 5.1 8.0----29.94+0.06 76.8 87.4----
2024-07-18 08:54 amWNW 5.1 8.0----29.94- 76.8 87.4----
2024-07-18 08:48 amWNW 5.1 6.0----29.94- 76.5 87.4----
2024-07-18 08:42 am W 5.1 6.0----29.94- 76.3 87.4----
2024-07-18 08:36 am W 5.1 7.0----29.93- 76.6 87.4----
2024-07-18 08:30 amWNW 6.0 7.0----29.93- 76.5 87.4----
2024-07-18 08:24 amWNW 5.1 8.0----29.93- 76.3 87.4----
2024-07-18 08:18 amWNW 6.0 8.0----29.93- 76.6 87.4----
2024-07-18 08:12 amWNW 5.1 7.0----29.93- 76.8 87.4----
2024-07-18 08:06 amWNW 2.9 7.0----29.93- 77.0 87.4----
2024-07-18 08:00 amWNW 6.0 7.0----29.93+0.05 76.8 87.4----
2024-07-18 07:54 amWNW 5.1 6.0----29.92- 76.6 87.4----
2024-07-18 07:48 am W 4.1 5.1----29.92-- 87.4----
2024-07-18 07:42 am W 4.1 5.1----29.92-- 87.4----
2024-07-18 07:36 am W 2.9 4.1----29.92-- 87.4----
2024-07-18 07:30 am W 2.9 5.1----29.91- 76.1 87.4----
2024-07-18 07:24 amWNW 4.1 6.0----29.91- 76.1 87.4----
2024-07-18 07:18 amWNW 5.1 7.0----29.91- 75.9 87.4----
2024-07-18 07:12 amWNW 4.1 6.0----29.91- 75.9 87.4----
2024-07-18 07:06 am NW 5.1 6.0----29.91- 75.9 87.4----
2024-07-18 07:00 amWNW 5.1 7.0----29.91+0.06 75.9 87.4----
2024-07-18 06:54 amWNW 5.1 6.0----29.90- 75.9 87.4----
2024-07-18 06:48 amWNW 4.1 6.0----29.90- 76.3 87.4----
2024-07-18 06:42 amNNW 2.9 4.1----29.90- 76.5 87.4----
2024-07-18 06:36 amWNW 4.1 5.1----29.90- 76.5 87.4----
2024-07-18 06:30 amWNW 2.9 5.1----29.89- 76.8 87.4----
2024-07-18 06:24 am NW 4.1 5.1----29.89- 77.0 87.4----
2024-07-18 06:18 am NW 2.9 5.1----29.89- 77.0 87.4----
2024-07-18 06:12 am NW 5.1 7.0----29.89- 77.0 87.4----
2024-07-18 06:06 am NW 4.1 6.0----29.88- 77.0 87.4----
2024-07-18 06:00 amNNW 2.9 6.0----29.88+0.03 77.2 87.4----
2024-07-18 05:54 am N 1.0 5.1----29.88- 77.2 87.4----
2024-07-18 05:48 amWNW 4.1 7.0----29.88- 76.8 87.4----
2024-07-18 05:42 am NW 4.1 7.0----29.88- 77.2 87.6----
2024-07-18 05:36 am NW 2.9 5.1----29.88- 77.2 87.6----
2024-07-18 05:30 amNNW 2.9 5.1----29.88- 77.2 87.6----
2024-07-18 05:24 amNNW 2.9 6.0----29.88- 77.2 87.6----
2024-07-18 05:18 am NW 4.1 6.0----29.88- 77.2 87.6----
2024-07-18 05:12 amNNW 2.9 5.1----29.88- 77.2 87.6----
2024-07-18 05:06 am NW 5.1 8.0----29.88- 77.2 87.6----
2024-07-18 05:00 am NW 5.1 9.9----29.88+0.04 77.0 87.6----
2024-07-18 04:54 am NW 6.0 8.0----29.87- 77.0 87.6----
2024-07-18 04:48 am NW 5.1 6.0----29.87-- 87.6----
2024-07-18 04:42 amWNW 4.1 5.1----29.87-- 87.6----
2024-07-18 04:36 am NW 2.9 6.0----29.86-- 87.6----
2024-07-18 04:30 amWNW 5.1 8.0----29.86- 77.0 87.6----
2024-07-18 04:24 amWNW 5.1 8.0----29.86- 77.2 87.6----
2024-07-18 04:18 amWNW 5.1 7.0----29.85- 77.0 87.6----
2024-07-18 04:12 amWNW 4.1 8.0----29.85- 77.4 87.6----
2024-07-18 04:06 amNNW 5.1 11.1----29.85- 77.4 87.6----
2024-07-18 04:00 am NW 5.1 7.0----29.85+0.00 77.4 87.8----
2024-07-18 03:54 am NW 6.0 9.9----29.85- 77.5 87.8----
2024-07-18 03:48 amWNW 5.1 6.0----29.85- 77.4 87.8----
2024-07-18 03:42 amWNW 5.1 7.0----29.85- 77.5 87.8----
2024-07-18 03:36 amWNW 6.0 7.0----29.85- 77.4 87.8----
2024-07-18 03:30 amWNW 4.1 7.0----29.85- 77.7 87.8----
2024-07-18 03:24 amWNW 5.1 7.0----29.85- 77.9 87.8----
2024-07-18 03:18 am NW 5.1 6.0----29.85- 77.9 87.8----
2024-07-18 03:12 amWNW 5.1 6.0----29.85- 78.1 88.0----
2024-07-18 03:06 amWNW 5.1 6.0----29.85- 77.7 88.0----
2024-07-18 03:00 am W 4.1 5.1----29.85+0.00 77.9 88.0----
2024-07-18 02:54 am W 4.1 5.1----29.85- 77.9 88.0----
2024-07-18 02:48 amWNW 4.1 7.0----29.85- 78.1 88.0----
2024-07-18 02:42 am NW 5.1 7.0----29.84- 78.1 88.0----
2024-07-18 02:36 amWNW 5.1 7.0----29.84- 78.1 88.0----
2024-07-18 02:30 amWNW 4.1 7.0----29.84- 78.1 88.0----
2024-07-18 02:24 amWNW 4.1 6.0----29.85- 78.3 88.2----
2024-07-18 02:18 am NW 4.1 6.0----29.85- 78.3 88.2----
2024-07-18 02:12 am NW 4.1 7.0----29.85- 78.6 88.2----
2024-07-18 02:06 amWNW 5.1 5.1----29.84- 78.6 88.2----
2024-07-18 02:00 amWNW 4.1 5.1----29.84-0.01 78.6 88.2----
2024-07-18 01:54 am NW 2.9 4.1----29.84- 78.8 88.2----